Location: Deerlick Astronomy Village
(33.5614°N, 82.7631°W)
Time: 19:28:43
(UTC-05:00)

CAS-4A - Pass Details

Date: 08 November 2020
Orbit: 528 x 543 km, 43.0° (Epoch: 30 November)

Event Time Altitude Azimuth Distance (km) Brightness Sun altitude
Rises 19:32:46 0° 203° (SSW) 2,681 ? -25.3°
Reaches altitude 10° 19:35:27 10° 186° (S) 1,793 ? -25.8°
Enters shadow 19:35:34 11° 185° (S) 1,762 ? -25.8°
